GLO1783 SBEG-SBSN

Flight info

Callsign GLO1783
Flight time 0h 55m
Altitude 33000
Route XOLOK UZ81 TOBUX DCT STM
Aircraft B738/M-SDE2E3FGHIRWXY/LB1

Departure

Time 2026-05-09 01:57
Airport Eduardo Gomes International Airport (SBEG)

Arrival

Time 2026-05-09 02:53
Airport Santarém - Maestro Wilson Fonseca International Airport (SBSN)
Time Latitude Longitude Altitude Speed Heading
2026-05-09 01:18 -3.03145 -60.04049 270 ft 0 kts 343°
2026-05-09 01:37 -3.03146 -60.04049 270 ft 2 kts 343°
2026-05-09 01:37 -3.03163 -60.04044 270 ft 3 kts 343°
2026-05-09 01:37 -3.03184 -60.04037 270 ft 3 kts 343°
2026-05-09 01:37 -3.03202 -60.04026 270 ft 3 kts 302°
2026-05-09 01:38 -3.03209 -60.04006 270 ft 3 kts 269°
2026-05-09 01:38 -3.03208 -60.03994 271 ft 0 kts 256°
2026-05-09 01:44 -3.03211 -60.04005 270 ft 10 kts 256°
2026-05-09 01:44 -3.03234 -60.04097 272 ft 14 kts 255°
2026-05-09 01:45 -3.03260 -60.04192 269 ft 14 kts 254°
2026-05-09 01:45 -3.03285 -60.04282 269 ft 13 kts 254°
2026-05-09 01:45 -3.03303 -60.04344 269 ft 0 kts 254°
2026-05-09 01:45 -3.03303 -60.04345 269 ft 1 kts 254°
2026-05-09 01:46 -3.03315 -60.04382 268 ft 11 kts 252°
2026-05-09 01:46 -3.03340 -60.04460 268 ft 12 kts 253°
2026-05-09 01:46 -3.03356 -60.04539 268 ft 12 kts 269°
2026-05-09 01:46 -3.03356 -60.04606 267 ft 0 kts 271°
2026-05-09 01:47 -3.03355 -60.04611 267 ft 2 kts 271°
2026-05-09 01:48 -3.03356 -60.04656 267 ft 10 kts 269°
2026-05-09 01:48 -3.03369 -60.04757 267 ft 19 kts 249°
2026-05-09 01:48 -3.03434 -60.04846 266 ft 16 kts 222°
2026-05-09 01:48 -3.03516 -60.04916 266 ft 16 kts 224°
2026-05-09 01:49 -3.03585 -60.05028 265 ft 18 kts 251°
2026-05-09 01:49 -3.03617 -60.05141 265 ft 21 kts 256°
2026-05-09 01:49 -3.03659 -60.05303 264 ft 21 kts 255°
2026-05-09 01:49 -3.03684 -60.05434 264 ft 23 kts 264°
2026-05-09 01:50 -3.03690 -60.05615 263 ft 24 kts 271°
2026-05-09 01:50 -3.03690 -60.05675 263 ft 9 kts 270°
2026-05-09 01:50 -3.03690 -60.05768 262 ft 17 kts 270°
2026-05-09 01:50 -3.03691 -60.05912 261 ft 24 kts 269°
2026-05-09 01:51 -3.03691 -60.06010 261 ft 8 kts 270°
2026-05-09 01:51 -3.03691 -60.06092 260 ft 16 kts 268°
2026-05-09 01:51 -3.03719 -60.06151 260 ft 10 kts 221°
2026-05-09 01:51 -3.03748 -60.06167 260 ft 0 kts 198°
2026-05-09 01:56 -3.03772 -60.06172 271 ft 8 kts 186°
2026-05-09 01:56 -3.03843 -60.06151 258 ft 14 kts 128°
2026-05-09 01:56 -3.03854 -60.06013 259 ft 31 kts 90°
2026-05-09 01:57 -3.03855 -60.05575 259 ft 100 kts 90°
2026-05-09 01:57 -3.03858 -60.04656 269 ft 162 kts 90°
2026-05-09 01:57 -3.03878 -60.03473 918 ft 165 kts 90°
2026-05-09 01:57 -3.03898 -60.02351 1885 ft 160 kts 91°
2026-05-09 01:58 -3.03929 -60.01185 2476 ft 181 kts 91°
2026-05-09 01:58 -3.03973 -59.99807 2776 ft 212 kts 91°
2026-05-09 01:58 -3.04022 -59.98248 3080 ft 232 kts 91°
2026-05-09 01:58 -3.04073 -59.96640 3647 ft 238 kts 91°
2026-05-09 01:59 -3.04126 -59.94979 4305 ft 239 kts 91°
2026-05-09 01:59 -3.04178 -59.93318 5014 ft 239 kts 91°
2026-05-09 01:59 -3.04230 -59.91651 5676 ft 241 kts 91°
2026-05-09 01:59 -3.04282 -59.89961 6283 ft 244 kts 91°
2026-05-09 02:00 -3.04335 -59.88256 6872 ft 246 kts 91°
2026-05-09 02:00 -3.04388 -59.86540 7454 ft 248 kts 91°
2026-05-09 02:00 -3.04441 -59.84803 7997 ft 251 kts 91°
2026-05-09 02:00 -3.04495 -59.83047 8554 ft 254 kts 91°
2026-05-09 02:01 -3.04549 -59.81275 9116 ft 256 kts 91°
2026-05-09 02:01 -3.04604 -59.79482 9676 ft 259 kts 91°
2026-05-09 02:01 -3.04660 -59.77673 10191 ft 262 kts 91°
2026-05-09 02:01 -3.04716 -59.75842 10692 ft 264 kts 91°
2026-05-09 02:02 -3.04772 -59.74002 11176 ft 266 kts 91°
2026-05-09 02:02 -3.04829 -59.72139 11665 ft 269 kts 91°
2026-05-09 02:02 -3.04890 -59.70264 12140 ft 272 kts 92°
2026-05-09 02:02 -3.04934 -59.69008 12460 ft 273 kts 92°
2026-05-09 02:03 -3.05001 -59.67120 13100 ft 265 kts 92°
2026-05-09 02:03 -3.05067 -59.65252 13412 ft 275 kts 92°
2026-05-09 02:03 -3.05136 -59.63311 13721 ft 285 kts 92°
2026-05-09 02:03 -3.05209 -59.61262 13800 ft 304 kts 92°
2026-05-09 02:04 -3.05286 -59.59077 13899 ft 325 kts 92°
2026-05-09 02:04 -3.05368 -59.56744 14051 ft 346 kts 92°
2026-05-09 02:04 -3.05484 -59.53438 14232 ft 371 kts 92°
2026-05-09 02:04 -3.05546 -59.51667 14312 ft 383 kts 92°
2026-05-09 02:05 -3.05641 -59.48949 14421 ft 398 kts 92°
2026-05-09 02:05 -3.05740 -59.46131 14549 ft 411 kts 92°
2026-05-09 02:05 -3.05840 -59.43255 14879 ft 416 kts 92°
2026-05-09 02:05 -3.05942 -59.40359 15329 ft 417 kts 92°
2026-05-09 02:06 -3.06043 -59.37455 15772 ft 419 kts 92°
2026-05-09 02:06 -3.06144 -59.34570 16168 ft 421 kts 92°
2026-05-09 02:06 -3.06247 -59.31593 16556 ft 424 kts 92°
2026-05-09 02:07 -3.06452 -59.25701 17297 ft 429 kts 92°
2026-05-09 02:07 -3.06556 -59.22708 17669 ft 431 kts 92°
2026-05-09 02:07 -3.06661 -59.19703 18026 ft 433 kts 92°
2026-05-09 02:07 -3.06766 -59.16677 18346 ft 436 kts 92°
2026-05-09 02:08 -3.06871 -59.13645 18642 ft 438 kts 92°
2026-05-09 02:08 -3.06977 -59.10588 18929 ft 440 kts 92°
2026-05-09 02:08 -3.07083 -59.07532 19209 ft 442 kts 92°
2026-05-09 02:08 -3.07190 -59.04454 19494 ft 443 kts 92°
2026-05-09 02:09 -3.07295 -59.01410 19771 ft 445 kts 92°
2026-05-09 02:09 -3.07401 -58.98333 20024 ft 447 kts 92°
2026-05-09 02:09 -3.07509 -58.95218 20264 ft 449 kts 92°
2026-05-09 02:09 -3.07616 -58.92090 20539 ft 450 kts 92°
2026-05-09 02:10 -3.07725 -58.88950 20786 ft 452 kts 92°
2026-05-09 02:10 -3.07833 -58.85808 21027 ft 454 kts 92°
2026-05-09 02:10 -3.07941 -58.82647 21256 ft 455 kts 92°
2026-05-09 02:10 -3.08051 -58.79475 21495 ft 457 kts 92°
2026-05-09 02:11 -3.08160 -58.76296 21722 ft 458 kts 92°
2026-05-09 02:11 -3.08269 -58.73101 21930 ft 460 kts 92°
2026-05-09 02:11 -3.08379 -58.69900 22151 ft 461 kts 91°
2026-05-09 02:11 -3.08489 -58.66694 22340 ft 462 kts 92°
2026-05-09 02:12 -3.08599 -58.63474 22536 ft 464 kts 91°
2026-05-09 02:12 -3.08709 -58.60247 22725 ft 465 kts 92°
2026-05-09 02:12 -3.08819 -58.57042 22901 ft 467 kts 92°
2026-05-09 02:12 -3.08930 -58.53795 23078 ft 468 kts 92°
2026-05-09 02:13 -3.09041 -58.50540 23251 ft 469 kts 92°
2026-05-09 02:13 -3.09152 -58.47277 23422 ft 470 kts 92°
2026-05-09 02:13 -3.09264 -58.44000 23568 ft 471 kts 91°
2026-05-09 02:13 -3.09375 -58.40719 23696 ft 473 kts 91°
2026-05-09 02:14 -3.09484 -58.37426 23806 ft 474 kts 91°
2026-05-09 02:14 -3.09247 -58.34137 23887 ft 476 kts 78°
2026-05-09 02:14 -3.08436 -58.30922 24039 ft 476 kts 75°
2026-05-09 02:14 -3.07565 -58.27722 24149 ft 478 kts 75°
2026-05-09 02:15 -3.06706 -58.24504 24247 ft 479 kts 75°
2026-05-09 02:15 -3.05865 -58.21268 24348 ft 481 kts 76°
2026-05-09 02:15 -3.05042 -58.18016 24465 ft 482 kts 76°
2026-05-09 02:15 -3.04231 -58.14758 24566 ft 483 kts 76°
2026-05-09 02:16 -3.03426 -58.11494 24670 ft 484 kts 76°
2026-05-09 02:16 -3.02622 -58.08218 24770 ft 485 kts 76°
2026-05-09 02:16 -3.01828 -58.04981 24867 ft 486 kts 76°
2026-05-09 02:16 -3.01009 -58.01647 24966 ft 487 kts 76°
2026-05-09 02:17 -3.00209 -57.98396 25057 ft 488 kts 76°
2026-05-09 02:17 -2.99398 -57.95100 25147 ft 489 kts 76°
2026-05-09 02:17 -2.98582 -57.91789 25244 ft 490 kts 76°
2026-05-09 02:17 -2.97765 -57.88472 25338 ft 491 kts 76°
2026-05-09 02:18 -2.96944 -57.85145 25430 ft 492 kts 76°
2026-05-09 02:18 -2.96125 -57.81822 25519 ft 493 kts 76°
2026-05-09 02:18 -2.95302 -57.78488 25601 ft 494 kts 76°
2026-05-09 02:18 -2.94479 -57.75149 25673 ft 495 kts 76°
2026-05-09 02:19 -2.93652 -57.71800 25737 ft 496 kts 76°
2026-05-09 02:19 -2.92826 -57.68451 25800 ft 496 kts 76°
2026-05-09 02:19 -2.92000 -57.65102 25853 ft 497 kts 76°
2026-05-09 02:19 -2.91169 -57.61737 25913 ft 497 kts 76°
2026-05-09 02:20 -2.90340 -57.58377 25961 ft 498 kts 76°
2026-05-09 02:20 -2.89508 -57.55008 26003 ft 499 kts 76°
2026-05-09 02:20 -2.88677 -57.51639 26043 ft 499 kts 76°
2026-05-09 02:20 -2.87845 -57.48272 26075 ft 500 kts 76°
2026-05-09 02:21 -2.87012 -57.44897 26122 ft 499 kts 76°
2026-05-09 02:21 -2.86179 -57.41525 26188 ft 499 kts 76°
2026-05-09 02:21 -2.85359 -57.38207 26449 ft 493 kts 76°
2026-05-09 02:21 -2.84545 -57.34914 27082 ft 483 kts 76°
2026-05-09 02:22 -2.83746 -57.31679 27632 ft 476 kts 76°
2026-05-09 02:22 -2.82957 -57.28486 28116 ft 471 kts 76°
2026-05-09 02:22 -2.82174 -57.25317 28521 ft 469 kts 76°
2026-05-09 02:22 -2.81390 -57.22147 28823 ft 470 kts 76°
2026-05-09 02:23 -2.80604 -57.18966 29088 ft 471 kts 76°
2026-05-09 02:23 -2.79818 -57.15785 29383 ft 472 kts 76°
2026-05-09 02:23 -2.79031 -57.12602 29738 ft 471 kts 76°
2026-05-09 02:23 -2.78245 -57.09425 30103 ft 470 kts 76°
2026-05-09 02:24 -2.77463 -57.06263 30395 ft 469 kts 76°
2026-05-09 02:24 -2.76675 -57.03079 30657 ft 470 kts 76°
2026-05-09 02:24 -2.75889 -56.99899 30918 ft 471 kts 76°
2026-05-09 02:24 -2.75103 -56.96725 31196 ft 471 kts 76°
2026-05-09 02:25 -2.74316 -56.93543 31502 ft 471 kts 76°
2026-05-09 02:25 -2.73529 -56.90361 31781 ft 471 kts 76°
2026-05-09 02:25 -2.72741 -56.87179 32051 ft 472 kts 76°
2026-05-09 02:25 -2.71953 -56.83994 32347 ft 472 kts 76°
2026-05-09 02:26 -2.71220 -56.81033 32632 ft 472 kts 76°
2026-05-09 02:26 -2.70430 -56.77843 32917 ft 472 kts 76°
2026-05-09 02:26 -2.69635 -56.74633 32935 ft 479 kts 76°
2026-05-09 02:27 -2.68015 -56.68092 32957 ft 491 kts 76°
2026-05-09 02:27 -2.66356 -56.61392 32959 ft 501 kts 76°
2026-05-09 02:28 -2.64672 -56.54594 32945 ft 504 kts 76°
2026-05-09 02:28 -2.62997 -56.47834 32947 ft 504 kts 76°
2026-05-09 02:29 -2.61373 -56.41012 32945 ft 504 kts 81°
2026-05-09 02:29 -2.60631 -56.34055 32954 ft 502 kts 86°
2026-05-09 02:30 -2.59970 -56.27103 32945 ft 502 kts 84°
2026-05-09 02:30 -2.59167 -56.20196 32636 ft 501 kts 84°
2026-05-09 02:30 -2.58757 -56.16712 31481 ft 502 kts 83°
2026-05-09 02:31 -2.58355 -56.13272 30510 ft 494 kts 83°
2026-05-09 02:31 -2.57959 -56.09870 29469 ft 488 kts 83°
2026-05-09 02:31 -2.57572 -56.06520 28373 ft 482 kts 83°
2026-05-09 02:31 -2.57190 -56.03214 27314 ft 475 kts 83°
2026-05-09 02:32 -2.56821 -56.00015 26310 ft 467 kts 83°
2026-05-09 02:32 -2.56449 -55.96782 25385 ft 466 kts 83°
2026-05-09 02:32 -2.56083 -55.93616 25252 ft 445 kts 83°
2026-05-09 02:32 -2.55737 -55.90612 24843 ft 427 kts 83°
2026-05-09 02:33 -2.55399 -55.87687 24107 ft 420 kts 83°
2026-05-09 02:33 -2.55064 -55.84789 23131 ft 420 kts 83°
2026-05-09 02:33 -2.54730 -55.81894 22650 ft 415 kts 83°
2026-05-09 02:33 -2.54401 -55.79043 22184 ft 411 kts 83°
2026-05-09 02:34 -2.54075 -55.76221 21765 ft 405 kts 83°
2026-05-09 02:34 -2.53754 -55.73441 21362 ft 402 kts 83°
2026-05-09 02:34 -2.53431 -55.70652 21099 ft 405 kts 83°
2026-05-09 02:34 -2.53107 -55.67842 20864 ft 408 kts 83°
2026-05-09 02:35 -2.52780 -55.65019 20581 ft 408 kts 83°
2026-05-09 02:35 -2.52455 -55.62212 20192 ft 405 kts 83°
2026-05-09 02:35 -2.52133 -55.59427 19787 ft 401 kts 83°
2026-05-09 02:35 -2.51818 -55.56702 19390 ft 399 kts 83°
2026-05-09 02:36 -2.51499 -55.53947 18957 ft 397 kts 83°
2026-05-09 02:36 -2.51183 -55.51213 18542 ft 395 kts 83°
2026-05-09 02:36 -2.50868 -55.48491 18111 ft 393 kts 83°
2026-05-09 02:36 -2.50547 -55.45782 17642 ft 391 kts 83°
2026-05-09 02:37 -2.50216 -55.43096 17216 ft 388 kts 83°
2026-05-09 02:37 -2.49883 -55.40434 16801 ft 384 kts 83°
2026-05-09 02:37 -2.49552 -55.37787 16395 ft 382 kts 83°
2026-05-09 02:37 -2.49224 -55.35164 15990 ft 379 kts 83°
2026-05-09 02:38 -2.48900 -55.32558 15592 ft 376 kts 83°
2026-05-09 02:38 -2.48578 -55.29968 15192 ft 374 kts 83°
2026-05-09 02:38 -2.48259 -55.27400 14831 ft 370 kts 83°
2026-05-09 02:38 -2.47943 -55.24857 14396 ft 365 kts 83°
2026-05-09 02:39 -2.47636 -55.22384 13989 ft 351 kts 83°
2026-05-09 02:39 -2.47341 -55.20005 13597 ft 338 kts 83°
2026-05-09 02:39 -2.47114 -55.17729 13441 ft 319 kts 87°
2026-05-09 02:39 -2.47036 -55.15610 13313 ft 300 kts 89°
2026-05-09 02:40 -2.46982 -55.13573 13109 ft 287 kts 89°
2026-05-09 02:40 -2.46943 -55.11593 12638 ft 284 kts 95°
2026-05-09 02:40 -2.47589 -55.09751 12076 ft 284 kts 127°
2026-05-09 02:40 -2.49129 -55.08549 11589 ft 286 kts 158°
2026-05-09 02:41 -2.51093 -55.08343 11101 ft 290 kts 189°
2026-05-09 02:41 -2.52904 -55.09210 10606 ft 294 kts 221°
2026-05-09 02:41 -2.54014 -55.10900 10128 ft 296 kts 253°
2026-05-09 02:41 -2.54287 -55.12936 9694 ft 294 kts 267°
2026-05-09 02:42 -2.54392 -55.14978 9180 ft 294 kts 267°
2026-05-09 02:42 -2.54495 -55.17017 8675 ft 294 kts 267°
2026-05-09 02:42 -2.54595 -55.19050 8211 ft 292 kts 267°
2026-05-09 02:42 -2.54620 -55.21073 7773 ft 290 kts 279°
2026-05-09 02:43 -2.53836 -55.22857 7477 ft 284 kts 314°
2026-05-09 02:43 -2.52219 -55.23906 7228 ft 271 kts 349°
2026-05-09 02:43 -2.50411 -55.23853 7015 ft 256 kts 25°
2026-05-09 02:43 -2.48916 -55.22970 6829 ft 248 kts 36°
2026-05-09 02:44 -2.47497 -55.22031 6564 ft 246 kts 42°
2026-05-09 02:44 -2.46384 -55.20740 6311 ft 240 kts 62°
2026-05-09 02:44 -2.45741 -55.19241 6057 ft 237 kts 77°
2026-05-09 02:44 -2.45621 -55.17612 5782 ft 235 kts 95°
2026-05-09 02:45 -2.45798 -55.15991 5531 ft 234 kts 95°
2026-05-09 02:45 -2.45950 -55.14376 5277 ft 232 kts 95°
2026-05-09 02:45 -2.46104 -55.12772 5030 ft 232 kts 95°
2026-05-09 02:45 -2.46263 -55.11169 4767 ft 231 kts 95°
2026-05-09 02:46 -2.46423 -55.09576 4489 ft 230 kts 95°
2026-05-09 02:46 -2.46583 -55.07991 4302 ft 227 kts 95°
2026-05-09 02:46 -2.46617 -55.06441 4203 ft 221 kts 84°
2026-05-09 02:46 -2.46412 -55.04913 4121 ft 223 kts 81°
2026-05-09 02:47 -2.46158 -55.03374 4037 ft 224 kts 80°
2026-05-09 02:47 -2.45909 -55.01877 3943 ft 212 kts 80°
2026-05-09 02:47 -2.45678 -55.00465 3830 ft 199 kts 80°
2026-05-09 02:47 -2.45464 -54.99150 3752 ft 184 kts 81°
2026-05-09 02:48 -2.45262 -54.97907 3614 ft 185 kts 81°
2026-05-09 02:48 -2.45052 -54.96615 3382 ft 184 kts 80°
2026-05-09 02:48 -2.44852 -54.95379 3158 ft 180 kts 80°
2026-05-09 02:48 -2.44657 -54.94180 2914 ft 168 kts 80°
2026-05-09 02:49 -2.44476 -54.93065 2696 ft 155 kts 80°
2026-05-09 02:49 -2.44312 -54.92052 2489 ft 142 kts 80°
2026-05-09 02:49 -2.44160 -54.91119 2312 ft 131 kts 80°
2026-05-09 02:49 -2.44017 -54.90237 2142 ft 128 kts 80°
2026-05-09 02:50 -2.43874 -54.89357 1982 ft 128 kts 80°
2026-05-09 02:50 -2.43733 -54.88492 1814 ft 127 kts 80°
2026-05-09 02:50 -2.43590 -54.87612 1640 ft 130 kts 79°
2026-05-09 02:50 -2.43494 -54.87019 1533 ft 130 kts 80°
2026-05-09 02:51 -2.43351 -54.86134 1352 ft 127 kts 80°
2026-05-09 02:51 -2.43209 -54.85261 1175 ft 129 kts 80°
2026-05-09 02:51 -2.43063 -54.84359 1023 ft 134 kts 80°
2026-05-09 02:51 -2.42911 -54.83430 842 ft 136 kts 81°
2026-05-09 02:52 -2.42761 -54.82495 652 ft 137 kts 81°
2026-05-09 02:52 -2.42609 -54.81559 525 ft 137 kts 81°
2026-05-09 02:52 -2.42456 -54.80602 368 ft 142 kts 82°
2026-05-09 02:52 -2.42289 -54.79632 215 ft 132 kts 82°
2026-05-09 02:53 -2.42167 -54.78851 210 ft 92 kts 81°
2026-05-09 02:53 -2.42101 -54.78439 211 ft 23 kts 81°
2026-05-09 02:53 -2.42079 -54.78288 206 ft 12 kts 90°
2026-05-09 02:53 -2.42116 -54.78239 208 ft 9 kts 161°
2026-05-09 02:54 -2.42177 -54.78253 208 ft 9 kts 206°
2026-05-09 02:54 -2.42230 -54.78285 209 ft 9 kts 211°
2026-05-09 02:54 -2.42282 -54.78317 210 ft 9 kts 212°
2026-05-09 02:54 -2.42319 -54.78361 205 ft 8 kts 254°
2026-05-09 02:55 -2.42323 -54.78420 204 ft 9 kts 270°
2026-05-09 02:55 -2.42326 -54.78458 205 ft 0 kts 250°
2026-05-09 02:56 -2.42329 -54.78461 205 ft 2 kts 234°
2026-05-09 02:56 -2.42346 -54.78465 205 ft 3 kts 167°
2026-05-09 02:57 -2.42349 -54.78465 205 ft 0 kts 167°